EA3GYL La Torregassa ES current weather conditions

sailwx.info

Wind from 118 at 0 knots gusting 2

Air temperature 25.0° C
Dewpoint 17.7° C

Last reported at 2014-Jul-24 18:45 UTC.
Time now 2014-Jul-24 20:03 UTC

Location: N 41°17' E 001°31'.
View on Google Maps.

See reports from other nearby stations

  
Tides and Currents Weather Stations Pressure Air Temp Water Temp Dewpoint Dewpoint Depression Visibility Wind Speed Wind Dir Waves Ship Positions
date/time (UTC)wind fromknots sea level pressurealtimeterstation pressurevisibilityair tempwater tempwave heightnotes
2014-Jul-24 18:45 118 0 gusting 2 25.0
2014-Jul-24 18:30 149 0 gusting 3 25.6
2014-Jul-24 18:15 110 1 gusting 5 25.6
2014-Jul-24 18:00 101 1 gusting 5 25.6
2014-Jul-24 17:45 123 0 gusting 3 25.6
2014-Jul-24 17:30 151 1 gusting 5 26.1
2014-Jul-24 17:15 137 2 gusting 4 26.1
2014-Jul-24 17:00 159 3 gusting 5 26.1
2014-Jul-24 16:45 156 3 gusting 6 26.7
2014-Jul-24 16:30 169 3 gusting 6 27.2
2014-Jul-24 16:15 175 3 gusting 7 28.3
2014-Jul-24 16:00 145 4 gusting 9 28.3
2014-Jul-24 15:45 161 4 gusting 8 28.9
2014-Jul-24 15:30 159 3 gusting 7 28.9
2014-Jul-24 15:15 183 3 gusting 7 28.3
2014-Jul-24 15:00 184 4 gusting 8 28.3
2014-Jul-24 14:45 145 4 gusting 10 28.9
2014-Jul-24 14:30 154 4 gusting 10 28.3
2014-Jul-24 14:15 175 3 gusting 7 28.9
2014-Jul-24 14:00 158 3 gusting 7 28.9
2014-Jul-24 13:45 156 4 gusting 8 28.3
2014-Jul-24 13:30 172 4 gusting 10 28.3
2014-Jul-24 13:15 158 4 gusting 9 28.3
2014-Jul-24 13:00 144 5 gusting 9 28.9
2014-Jul-24 12:45 159 5 gusting 10 28.3
2014-Jul-24 12:30 160 5 gusting 9 28.3
2014-Jul-24 12:15 139 4 gusting 10 28.3
2014-Jul-24 12:00 152 4 gusting 8 28.9
2014-Jul-24 11:45 152 4 gusting 7 28.3
2014-Jul-24 09:45 164 3 gusting 7 27.8
2014-Jul-24 09:30 135 2 gusting 7 27.8
2014-Jul-24 09:15 156 2 gusting 4 27.2
2014-Jul-24 09:00 185 1 gusting 5 27.2
2014-Jul-24 08:45 227 1 gusting 5 26.7
2014-Jul-24 08:30 173 1 gusting 5 26.7
2014-Jul-24 08:15 236 2 gusting 5 25.6
2014-Jul-24 08:00 241 2 gusting 4 25.6
2014-Jul-24 07:45 216 0 gusting 3 25.6
2014-Jul-24 07:00 225 0 gusting 2 24.4
2014-Jul-24 06:45 266 24.4
2014-Jul-23 23:00 21.7
2014-Jul-23 22:45 069 21.7
2014-Jul-23 22:30 068 21.7
2014-Jul-23 22:15 21.7
2014-Jul-23 22:00 060 21.7
2014-Jul-23 21:45 300 22.2
2014-Jul-23 21:30 306 22.2
2014-Jul-23 21:15 282 0 gusting 1 22.2
2014-Jul-23 21:00 280 0 gusting 1 22.2
2014-Jul-23 20:45 264 0 gusting 1 22.2
2014-Jul-23 20:30 245 0 gusting 1 22.8
2014-Jul-23 20:15 249 0 gusting 1 22.8
2014-Jul-23 20:00 238 1 gusting 5 23.3
2014-Jul-23 19:30 236 2 gusting 5 23.9
2014-Jul-23 19:15 234 2 gusting 5 24.4
2014-Jul-23 19:00 239 4 gusting 8 25.6
2014-Jul-23 18:45 239 5 gusting 8 26.1
2014-Jul-23 18:15 232 4 gusting 9 27.2
2014-Jul-23 18:00 233 5 gusting 8 27.2
2014-Jul-23 17:30 239 5 gusting 10 27.8
2014-Jul-23 17:15 249 4 gusting 9 27.8
2014-Jul-23 17:00 237 5 gusting 13 28.3
2014-Jul-23 16:45 220 5 gusting 10 28.3
2014-Jul-23 16:30 217 5 gusting 10 28.3
2014-Jul-23 16:15 204 5 gusting 10 28.9
2014-Jul-23 16:00 219 5 gusting 9 28.9
2014-Jul-23 15:45 199 4 gusting 10 29.4
2014-Jul-23 15:30 207 6 gusting 12 28.9
2014-Jul-23 15:15 197 5 gusting 10 29.4
2014-Jul-23 15:00 201 6 gusting 12 29.4
2014-Jul-23 14:30 216 6 gusting 12 28.9
2014-Jul-23 14:15 234 7 gusting 13 28.9
2014-Jul-23 14:00 226 6 gusting 13 29.4
2014-Jul-23 13:45 224 6 gusting 13 29.4
2014-Jul-23 13:30 192 6 gusting 13 29.4
2014-Jul-23 11:45 186 6 gusting 13 27.8
2014-Jul-23 11:30 185 5 gusting 10 28.3
2014-Jul-23 11:15 162 6 gusting 12 27.8
2014-Jul-23 11:00 148 6 gusting 11 27.2
2014-Jul-23 10:45 138 5 gusting 9 27.2
2014-Jul-23 10:30 146 4 gusting 10 27.2
2014-Jul-23 10:15 160 5 gusting 9 27.2
2014-Jul-23 10:00 162 4 gusting 9 27.2
2014-Jul-23 09:45 135 2 gusting 6 27.2
2014-Jul-23 09:30 118 2 gusting 6 26.7
2014-Jul-23 09:15 057 1 gusting 4 26.1
2014-Jul-23 09:00 107 1 gusting 5 26.1
2014-Jul-23 08:30 157 1 gusting 5 25.6
2014-Jul-23 08:00 107 1 gusting 3 24.4
2014-Jul-23 07:45 114 0 gusting 2 24.4
2014-Jul-22 22:30 280 0 gusting 1 21.1
2014-Jul-22 22:15 261 21.7
2014-Jul-22 22:00 328 21.7
2014-Jul-22 21:45 328 22.2
2014-Jul-22 21:30 042 22.2
2014-Jul-22 21:15 019 22.2
2014-Jul-22 20:45 071 22.2
2014-Jul-22 20:15 190 23.3